Terug naar catalogus

COSMOS 2251 DEB

ActiefLEO
NORAD 39109·DEBRIS·🇷🇺 Russia

Gelanceerd Jun 16, 1993 vanaf Plesetsk Cosmodrome

Loading…

Volgende Passages (komende 24 uur)

TLE

VerouderendSource: Space-Track

Epoch: Sep 11, 2026, 04:05 UTC

1 39109U 93036BTY 26254.17071822  .00001981  00000-0  31086-3 0  9990
2 39109  74.0418  55.6680 0056787  89.8498  33.0750 14.72286402691816

Volg COSMOS 2251 DEB in realtime met AllMySat

Download on the App Store